This is the latest recevied weather packets stored in our database for station/object HB0PJ-13. If no packets are shown the sender has not sent any weather packets the latest 10 day(s).
| Time | Temp. | Humidity | Pressure | Rain* | Wind** | Luminosity | Snow |
|---|---|---|---|---|---|---|---|
| 1778162286 | 17.22° C | 52% | 957.8 hPa | - | - | 37 W/m² | - |
| 1778162166 | 17.22° C | 52% | 957.8 hPa | - | - | 33 W/m² | - |
| 1778161565 | 17.78° C | 50% | 957.7 hPa | - | - | 31 W/m² | - |
| 1778161086 | 17.78° C | 50% | 957.8 hPa | - | - | 29 W/m² | - |
| 1778160846 | 17.78° C | 49% | 957.8 hPa | - | - | 27 W/m² | - |
| 1778160726 | 17.78° C | 50% | 957.7 hPa | - | - | 26 W/m² | - |
| 1778160365 | 17.78° C | 49% | 957.7 hPa | - | - | 26 W/m² | - |
| 1778159886 | 18.33° C | 49% | 957.7 hPa | - | - | 31 W/m² | - |
| 1778159646 | 18.33° C | 49% | 957.7 hPa | - | - | 40 W/m² | - |
| 1778159526 | 18.33° C | 49% | 957.7 hPa | - | - | 39 W/m² | - |
| 1778159166 | 17.78° C | 49% | 957.6 hPa | - | - | 57 W/m² | - |
| 1778159046 | 17.78° C | 50% | 957.7 hPa | - | - | 55 W/m² | - |
| 1778158686 | 17.78° C | 50% | 957.8 hPa | - | - | 43 W/m² | - |
| 1778157845 | 17.22° C | 49% | 957.8 hPa | - | - | 37 W/m² | - |
| 1778157245 | 17.22° C | 50% | 957.7 hPa | - | - | 37 W/m² | - |
| 1778156766 | 16.67° C | 50% | 957.7 hPa | - | - | 34 W/m² | - |
| 1778156286 | 17.22° C | 51% | 957.6 hPa | - | - | 30 W/m² | - |
| 1778155926 | 17.22° C | 51% | 957.6 hPa | - | - | 32 W/m² | - |
| 1778155686 | 17.22° C | 51% | 957.7 hPa | - | - | 39 W/m² | - |
| 1778155566 | 17.22° C | 51% | 957.7 hPa | - | - | 48 W/m² | - |
| 1778155446 | 17.22° C | 50% | 957.6 hPa | - | - | 38 W/m² | - |
| 1778155205 | 17.22° C | 51% | 957.7 hPa | - | - | 36 W/m² | - |
| 1778154846 | 17.22° C | 50% | 957.7 hPa | - | - | 28 W/m² | - |
| 1778154126 | 18.33° C | 47% | 957.5 hPa | - | - | 53 W/m² | - |
| 1778153646 | 18.33° C | 46% | 957.5 hPa | - | - | 48 W/m² | - |
* Rain since midnight (hover to see other rain measurements)
** Current wind speed in m/s (hover to see current wind gust speed)